Theta_e
322 315 318 310 301 298 295 299 304 304 302 304 310 308 302 298 302 302 302 317 321 321 325 327 330 330 331 332 332 332 333 331 332 332 332 331 330 331 331 331 331 332 334 334 335 335 334 332 334
317 314 311 305 296 292 295 303 302 303 305 307 305 303 301 294 298 299 300 310 320 321 322 324 328 329 330 330 329 329 329 329 328 329 328 327 328 328 328 327 327 328 328 328 328 328 329 329 332
319 314 305 301 296 293 295 301 303 304 306 306 302 300 298 295 298 299 303 310 316 318 320 323 326 327 328 327 327 327 327 326 325 325 324 324 324 324 324 324 325 326 326 326 326 326 326 331 333
307 307 306 298 295 300 302 306 303 301 305 306 303 296 295 298 300 302 305 311 314 315 318 322 325 325 326 325 325 325 324 323 322 322 321 321 321 321 321 322 322 322 323 324 324 325 329 331 330
305 305 299 296 298 302 304 310 306 301 301 302 304 295 293 298 303 303 306 310 312 312 313 318 321 322 323 322 322 321 320 319 319 319 318 318 319 318 319 319 319 319 320 321 324 330 329 328 329
301 307 299 296 298 305 307 312 303 304 305 303 302 295 293 299 301 302 305 307 312 309 309 312 316 318 319 319 318 318 317 316 315 315 315 314 314 315 316 317 318 319 320 323 327 327 326 326 327
298 299 298 298 298 301 307 310 307 306 303 298 298 294 293 297 300 301 303 305 309 307 306 306 307 311 314 314 313 313 312 311 310 310 309 309 310 311 313 316 317 318 324 323 323 323 324 324 324
303 300 295 295 296 299 303 299 303 309 302 300 300 294 291 297 301 300 300 302 304 304 304 302 303 302 301 302 308 308 307 305 305 305 304 305 306 308 311 312 316 318 318 319 322 322 321 320 319
306 296 294 297 298 300 300 298 297 300 298 297 297 296 296 300 300 297 295 296 298 300 298 298 300 299 298 298 301 302 303 303 302 300 302 299 295 300 303 311 314 316 316 317 319 318 315 314 314
300 296 298 303 301 301 301 303 299 297 297 295 294 297 299 299 298 296 295 294 295 296 296 296 295 296 296 297 296 293 295 293 294 294 294 294 293 296 301 305 310 311 312 315 316 315 310 307 305
299 296 302 301 298 297 297 296 300 297 296 303 295 294 296 297 296 296 296 296 296 296 296 296 295 293 293 293 292 291 291 292 292 292 293 294 293 293 295 296 297 298 304 301 303 303 301 301 303
294 300 301 301 299 299 295 296 294 295 298 298 298 296 296 296 296 296 296 296 296 296 295 296 294 293 292 291 291 291 292 291 290 291 292 292 291 292 294 295 296 297 298 298 298 299 302 301 301
293 294 298 300 298 296 297 297 296 299 296 295 297 296 295 295 296 298 299 299 296 296 295 294 293 292 292 291 291 290 290 290 289 290 291 291 291 292 293 294 294 294 295 296 296 296 295 293 294
293 293 293 296 296 296 295 293 296 298 299 294 295 294 295 295 295 297 298 298 296 296 294 292 292 292 292 290 290 289 289 289 289 289 289 291 291 292 293 293 293 292 293 293 294 293 290 289 289
292 288 290 291 293 293 293 289 291 297 294 292 293 293 294 295 296 296 298 298 297 296 294 292 291 291 291 290 290 289 289 289 288 288 288 290 291 293 293 292 291 291 291 291 291 289 288 287 288
286 285 281 287 291 291 291 284 292 294 296 293 291 291 293 294 296 297 299 298 296 295 293 292 292 290 290 289 288 288 289 288 287 287 287 289 291 293 292 291 291 291 290 289 288 287 287 286 285
283 279 281 285 290 288 288 284 289 290 294 294 290 291 293 295 296 298 299 297 295 295 293 291 289 289 289 288 288 288 287 287 287 286 286 288 290 293 292 291 290 290 289 288 289 286 286 285 285
279 280 283 282 286 285 283 285 288 287 289 290 290 290 292 292 294 297 295 295 295 293 292 291 289 289 288 288 287 287 287 286 286 286 286 288 290 293 292 291 291 290 288 287 286 285 285 284 285
282 281 280 282 286 284 283 284 286 286 285 286 287 289 292 293 295 296 295 294 294 292 291 289 288 288 288 287 286 286 285 285 285 286 287 287 288 292 291 291 290 289 287 286 285 284 284 283 284
284 281 281 283 284 282 281 281 284 285 286 286 289 289 291 293 293 294 294 293 293 291 290 288 288 288 288 288 287 286 285 285 285 286 286 286 288 290 291 290 289 288 287 286 286 286 285 284 286
280 279 279 280 281 280 277 279 281 283 285 288 288 291 291 293 292 293 292 292 292 290 289 288 288 288 288 288 288 287 285 284 283 284 284 285 286 288 290 290 289 288 287 286 286 286 285 283 283
277 280 281 281 278 273 277 271 277 282 284 283 286 287 289 291 293 293 292 291 291 290 289 289 288 288 288 288 288 286 285 283 283 283 284 284 286 286 289 290 289 289 288 287 286 287 284 283 282
279 281 279 279 276 274 274 272 275 278 280 284 283 284 285 288 293 292 291 292 291 290 288 288 287 287 288 288 288 286 284 283 284 284 282 283 284 285 286 287 286 286 286 284 284 283 282 282 280
282 279 278 276 274 267 273 274 273 277 282 281 282 284 284 285 287 291 291 291 289 289 287 287 286 287 287 287 286 286 284 283 283 282 282 282 282 283 284 285 284 284 283 283 282 282 282 281 281
279 275 271 267 264 268 273 272 278 282 283 282 281 282 283 283 284 287 287 288 287 286 286 286 286 285 286 286 285 285 284 284 283 282 282 282 281 281 282 283 282 282 283 283 282 282 282 281 280
276 276 272 264 268 272 274 272 277 283 283 281 282 281 282 281 283 286 287 287 287 287 286 286 285 285 285 285 285 285 284 284 284 283 283 282 282 282 282 282 282 283 283 282 282 281 280 280 280
275 273 277 269 266 266 272 275 280 281 281 282 281 281 281 282 282 284 285 286 287 287 286 286 285 285 285 285 285 285 285 284 284 284 284 283 283 283 282 282 282 282 282 282 281 280 279 280 279
275 277 271 270 262 262 272 272 274 277 279 280 280 281 282 282 283 282 285 286 287 287 286 286 285 285 285 285 285 285 285 285 285 284 283 283 283 284 282 282 281 281 281 281 280 279 280 279 279
272 272 272 274 273 267 266 272 279 280 281 280 280 282 283 283 283 282 283 285 287 287 286 285 285 285 284 284 285 285 284 284 284 284 284 284 283 283 282 282 281 281 280 280 279 279 279 279 278
273 273 274 269 267 270 270 273 282 281 281 282 283 283 283 283 284 282 282 284 284 285 285 285 284 284 284 285 284 284 284 284 283 283 283 282 282 282 282 281 281 281 280 280 279 279 279 278 278
Wind_Speed
7 8 2 4 3 2 4 7 6 11 3 2 3 4 8 5 2 4 4 10 13 9 10 8 11 12 12 14 14 12 12 11 10 11 11 9 9 9 8 8 7 6 8 9 10 8 9 8 9
3 5 4 1 4 2 5 8 1 4 2 2 6 4 5 2 3 7 6 6 13 12 8 9 10 12 13 14 14 13 13 13 12 11 11 10 10 10 10 9 9 8 8 8 6 6 8 6 6
3 4 4 4 4 7 4 2 5 3 7 3 3 6 3 2 4 6 5 8 10 11 8 9 10 12 13 13 13 13 13 13 12 11 11 11 11 10 10 10 9 9 9 8 8 8 7 5 12
1 4 4 2 7 6 11 10 3 4 5 6 4 6 4 2 8 7 6 8 12 10 8 11 9 11 13 13 13 13 13 12 12 11 11 11 11 10 10 10 10 10 9 9 9 8 8 15 15
2 1 1 3 8 7 3 4 4 4 3 1 2 4 3 4 8 9 7 8 13 9 6 8 9 10 12 12 12 13 13 12 12 12 12 11 11 11 10 10 9 9 9 9 9 13 17 17 14
1 2 2 5 7 8 3 1 3 7 7 2 6 5 2 6 6 6 6 8 11 11 7 7 8 10 11 12 13 13 13 12 12 12 12 12 11 12 10 10 10 9 9 10 14 16 17 15 17
4 1 5 6 5 7 4 2 4 2 9 6 7 4 2 4 5 5 6 8 11 11 9 5 5 8 11 11 12 12 13 13 12 12 12 12 12 12 11 11 11 10 12 14 14 14 17 18 19
4 3 3 3 3 7 5 4 7 6 4 3 1 2 4 8 10 7 5 6 9 9 9 8 6 7 5 5 11 11 12 13 12 12 10 12 13 11 11 8 11 12 12 12 15 17 18 19 19
2 1 4 5 6 6 3 4 3 6 8 3 3 4 4 16 9 5 3 4 4 6 9 8 8 8 7 6 7 10 11 11 10 8 10 10 5 5 5 11 12 13 12 12 15 17 17 19 20
5 4 7 6 2 2 5 3 8 6 5 4 4 5 12 16 11 7 4 5 5 6 6 7 7 8 8 7 5 5 5 4 4 5 6 4 6 4 5 5 8 11 11 13 15 16 16 12 6
6 6 5 2 3 1 3 4 6 7 4 7 8 14 14 17 13 9 7 6 8 6 6 7 6 6 6 6 4 3 2 3 3 4 5 5 4 3 2 2 2 3 8 4 6 8 6 7 7
4 8 6 3 3 3 2 1 4 7 9 9 10 21 18 17 17 16 13 10 8 8 7 7 7 6 6 4 4 4 4 3 3 3 4 4 3 4 3 3 3 4 3 5 5 4 5 9 10
7 5 5 7 6 3 4 7 4 7 2 4 5 17 18 16 18 17 14 11 10 12 7 7 7 7 6 5 4 4 4 4 4 4 5 4 4 4 4 4 4 4 4 4 5 6 7 8 10
0 1 3 5 6 4 5 3 7 11 8 9 12 16 15 18 20 16 18 16 15 13 12 8 7 7 6 5 6 5 5 5 4 4 4 5 4 4 5 4 4 4 5 4 5 5 7 6 8
2 3 6 7 6 6 5 6 13 11 10 12 11 10 11 14 15 20 19 16 17 13 13 12 8 7 7 7 6 5 5 5 4 4 4 4 4 5 6 5 4 4 4 7 6 6 6 7 7
1 1 3 4 9 4 9 8 10 8 9 12 12 9 10 13 15 12 14 13 14 14 14 12 10 8 7 6 5 4 5 4 4 4 4 4 4 6 5 5 4 4 4 5 5 5 6 6 5
4 5 7 7 9 6 8 7 5 2 9 11 8 9 12 11 12 13 16 15 16 15 14 13 10 10 8 7 5 5 6 5 4 4 4 4 4 6 5 5 4 5 4 5 6 4 6 6 5
7 6 5 6 5 3 5 14 11 7 5 10 10 10 12 13 19 17 14 14 15 15 15 13 10 9 8 6 5 4 4 4 4 4 4 5 4 6 6 4 5 5 5 5 4 5 3 4 5
3 4 7 5 5 6 9 15 14 10 6 11 12 12 15 19 16 15 15 16 16 16 17 16 14 10 9 7 7 4 5 4 3 4 6 5 4 6 6 4 5 5 5 5 6 4 6 3 4
10 12 13 5 3 2 8 14 11 9 10 12 18 16 20 14 13 16 17 17 19 18 17 17 16 14 11 8 5 4 5 2 3 4 5 5 5 5 5 5 5 6 5 6 4 4 3 2 1
5 6 4 7 2 4 5 13 9 10 9 14 12 21 16 19 18 18 17 19 16 18 18 17 17 15 12 11 7 5 4 4 3 3 3 4 5 5 6 6 6 6 5 5 4 5 5 3 1
5 2 3 5 2 6 3 10 4 8 13 7 16 17 15 15 14 17 19 19 19 16 16 17 15 15 12 13 11 14 10 9 4 4 4 4 5 5 6 6 6 6 4 6 4 4 3 4 4
6 2 3 1 2 4 1 3 7 4 6 16 7 10 11 14 15 18 20 20 17 16 17 16 16 16 14 14 12 11 9 4 5 6 7 5 5 6 6 6 6 6 4 5 6 4 4 3 4
6 4 5 5 4 4 10 9 4 6 9 3 2 7 4 8 10 11 12 13 14 13 15 15 17 16 15 14 13 14 12 9 9 7 7 4 4 4 6 6 6 6 6 5 4 4 5 5 5
3 7 1 4 3 10 3 5 13 10 10 2 1 4 7 9 6 8 12 14 13 15 15 15 17 17 15 15 14 13 12 11 13 12 9 9 5 3 5 5 6 5 6 6 5 6 6 5 5
7 8 8 9 5 5 2 8 9 11 3 2 6 5 6 7 2 6 9 13 14 15 16 17 16 16 16 16 14 12 9 8 9 10 9 7 6 6 6 6 6 7 7 6 5 4 4 6 5
6 6 4 6 3 4 6 8 11 5 4 8 7 7 8 7 4 7 7 9 13 15 17 18 17 16 17 17 13 13 10 12 11 11 10 7 7 7 8 8 8 7 7 7 6 4 5 5 4
2 2 4 3 3 5 5 5 8 3 7 5 5 5 4 5 6 4 7 10 12 13 14 15 16 18 17 15 13 12 11 12 11 11 11 11 10 11 10 9 9 7 7 7 7 5 5 6 4
3 2 1 3 5 6 2 8 9 8 8 6 5 4 3 4 5 5 5 8 11 11 14 15 14 16 14 15 13 13 10 11 11 11 11 11 11 11 11 10 10 9 8 7 7 6 6 7 6
1 6 7 6 6 4 4 13 5 7 8 7 5 4 2 4 6 6 8 7 10 13 14 15 14 15 15 15 14 13 11 11 11 10 10 9 11 10 11 10 9 9 8 7 7 7 6 7 6
Wind_Direction
317 298 178 37 69 95 227 245 235 283 313 329 62 67 121 39 89 181 235 115 120 117 115 114 117 117 114 105 95 89 91 87 79 75 80 76 72 72 69 67 69 62 46 41 43 41 46 26 6
315 304 42 102 113 255 264 239 260 159 104 352 44 110 33 93 87 134 116 161 136 132 120 113 121 122 117 106 105 103 99 92 83 80 77 73 69 66 64 62 63 63 60 57 51 45 40 27 38
269 194 97 151 182 215 245 260 191 205 138 119 82 58 69 83 81 143 186 148 100 107 109 111 125 125 116 110 108 106 101 97 93 87 80 74 70 65 62 59 60 60 61 61 66 64 61 52 65
275 14 349 134 248 253 228 272 159 131 344 80 122 73 70 336 144 156 160 128 106 107 110 112 126 125 117 110 110 106 101 98 96 90 84 81 75 69 67 63 58 56 58 60 57 64 75 65 58
37 96 251 229 253 262 286 312 161 134 142 182 91 148 60 33 105 131 150 121 114 104 92 101 114 121 117 114 112 107 105 101 97 90 85 80 74 67 66 62 61 65 68 74 82 80 67 60 58
333 179 219 236 256 267 247 287 49 30 22 96 73 104 111 136 114 152 143 124 118 117 100 96 104 114 112 112 112 109 106 103 97 94 88 83 78 73 68 68 68 69 82 94 82 73 74 73 66
145 136 220 232 261 295 293 91 101 121 36 328 337 95 129 149 157 157 152 116 120 120 119 114 103 110 110 109 108 110 109 105 104 99 94 84 76 74 67 70 75 82 74 74 78 84 84 76 68
145 128 257 254 259 270 192 118 132 147 171 229 27 85 198 189 163 158 159 133 128 139 143 148 142 123 104 103 115 113 110 109 107 107 104 83 84 78 76 46 77 82 85 92 94 88 81 75 69
140 25 236 222 223 251 246 156 121 180 142 99 72 164 206 136 137 136 143 138 142 152 152 165 163 149 136 126 131 122 122 116 107 89 109 96 93 91 64 78 85 88 94 103 97 94 88 80 73
141 177 231 228 191 233 190 167 159 153 136 153 144 93 122 134 147 165 189 199 183 172 168 162 149 154 157 146 150 129 113 113 108 96 101 105 110 121 101 78 79 72 60 80 79 92 85 77 70
195 215 232 257 158 197 158 176 165 141 197 204 188 155 152 152 154 181 203 203 196 187 173 167 156 158 143 131 138 130 126 114 95 95 111 109 98 93 101 88 41 63 68 54 65 71 66 79 76
220 228 227 173 183 139 191 303 206 175 217 166 163 166 164 168 168 177 203 206 192 184 185 163 152 142 148 141 145 148 142 129 109 87 85 105 90 94 96 83 84 87 88 76 68 73 82 81 81
219 236 226 150 168 177 134 233 233 259 209 173 167 164 174 174 185 183 193 202 186 183 165 165 150 154 160 155 147 137 129 123 128 96 84 111 109 113 105 88 82 90 89 88 73 70 72 66 72
33 203 291 191 203 208 202 257 155 244 179 201 172 184 190 187 186 182 189 195 185 172 166 161 159 164 160 158 147 136 129 124 111 100 94 109 124 120 110 101 101 93 104 93 90 88 86 78 78
86 332 319 231 204 224 144 276 229 227 171 192 197 192 192 202 194 191 194 188 174 173 160 162 160 166 163 153 139 136 137 125 118 118 108 109 120 123 122 118 112 121 106 104 96 85 84 82 80
71 113 248 274 160 205 137 258 256 238 166 210 209 201 201 210 210 206 193 171 173 162 167 161 162 162 155 150 139 131 128 128 130 129 116 122 115 129 125 122 128 135 113 103 102 104 91 88 78
246 233 219 304 194 135 183 257 261 16 200 230 216 213 216 220 214 208 203 188 164 163 162 165 156 161 156 147 140 134 134 129 132 134 130 147 122 134 130 133 138 129 116 112 123 102 114 110 101
198 225 242 220 220 203 215 256 269 278 179 229 229 220 216 214 209 195 179 170 161 163 165 163 161 158 153 138 129 118 125 125 135 142 152 155 136 134 130 128 130 119 112 109 112 117 94 117 121
250 238 230 261 223 175 236 251 255 256 225 239 236 227 219 217 207 191 179 170 165 167 166 166 159 165 158 154 152 148 155 144 138 149 149 156 144 142 137 131 129 123 121 135 135 114 116 96 131
244 255 265 286 135 181 277 263 244 241 235 220 232 231 226 223 196 193 183 177 178 174 170 168 170 169 169 163 160 137 144 151 141 148 144 155 146 149 145 138 145 133 125 128 131 127 119 103 180
215 210 202 237 311 239 295 278 257 259 266 257 239 237 230 211 195 193 186 187 180 178 174 173 172 172 170 168 156 135 101 102 120 158 145 165 146 151 141 139 139 138 128 143 148 142 132 137 8
241 182 207 249 90 247 109 291 257 256 267 248 241 235 231 210 200 194 188 186 185 180 170 169 169 170 177 176 176 170 173 168 176 156 147 154 154 144 139 137 140 139 138 142 153 158 144 130 152
224 131 105 94 161 336 118 295 262 241 262 257 294 255 228 209 195 192 192 191 183 172 173 170 167 174 180 183 181 172 167 165 143 145 146 153 149 140 132 136 129 129 132 136 136 126 128 138 141
149 81 44 47 77 302 186 179 224 213 220 266 355 344 254 219 210 199 186 175 175 169 168 169 170 180 180 178 177 180 170 161 149 156 159 159 146 139 135 129 125 123 123 131 132 115 112 113 105
112 92 15 354 6 236 218 199 261 281 268 256 353 351 341 336 210 173 165 174 170 173 173 173 175 179 178 181 180 176 173 173 167 165 167 160 154 151 151 132 129 122 123 126 128 118 119 127 122
181 165 162 199 202 266 310 231 248 232 72 294 44 39 9 16 83 178 184 178 178 177 177 180 180 178 180 181 182 182 171 170 171 168 162 162 160 150 149 137 131 131 130 128 123 109 112 109 107
191 203 170 90 58 44 228 287 310 272 88 60 41 41 21 354 317 225 176 178 181 180 184 183 179 183 181 184 180 183 175 168 170 165 159 160 155 157 152 143 141 140 134 134 132 126 120 115 114
151 217 99 356 157 241 269 258 228 163 147 120 88 47 14 329 290 294 184 186 190 186 183 184 184 183 182 182 185 186 180 174 163 159 164 166 165 161 155 150 147 143 139 137 132 129 131 117 115
152 196 228 136 159 179 240 260 215 190 172 122 146 208 244 293 282 267 222 197 191 178 178 182 182 181 181 180 182 181 176 169 164 167 170 169 162 160 158 155 149 147 142 141 136 140 138 127 125
183 187 160 135 238 235 165 261 209 156 145 137 184 238 300 293 276 258 241 193 178 179 179 183 182 183 182 182 180 181 171 168 166 168 167 159 160 158 153 149 147 148 146 147 146 151 144 141 143